カタログに戻る

STARLINK-37657

運用中通信SSO
NORAD 69145·PAYLOAD·🇺🇸 United States

打ち上げ May 20, 2026 から Vandenberg Space Force Base

Loading…

次のパス (今後24時間)

TLE

最新Source: CelesTrak SupGP

元期: Sep 14, 2026, 22:56 UTC

1 69145C 26110X   26257.95604167  .00080500  00000+0  24991-2 0  2571
2 69145  97.2851  93.1551 0001715  93.2151 158.0570 15.33395148    17

AllMySatでSTARLINK-37657をリアルタイム追跡

Download on the App Store